Regional Weather Roundup
Issued by NWS Portland, ME

Current Version | Previous Version | Text Only | Print | Product List | Glossary Off
Versions: 1 2 3 4 5 6 7 8 9 10 11 12 13 14 15 16 17 18 19 20 21 22 23 24 25 26 27 28 29 30 31 32 33 34 35 36 37 38 39 40 41 42 43 44 45 46 47 48 49 50
019 ASUS41 KGYX 201905 RWRGYX WEATHER ROUNDUP FOR MAINE AND NEW HAMPSHIRE NATIONAL WEATHER SERVICE GRAY ME 300 PM EDT FRI OCT 20 2017 MEZ002-005-006-010-012-015-018-020-021-024-026-027-029-202000- MAINE CITY SKY/WX TMP DP RH WIND PRES REMARKS PORTLAND SUNNY 69 36 29 NW10G22 29.95R SANFORD SUNNY 67 38 34 W15G22 29.97R BAR HARBOR SUNNY 66 37 34 NW9 29.88S WISCASSET SUNNY 69 35 28 W12G22 29.93F ROCKLAND SUNNY 67 39 35 W16G23 29.90F FRYEBURG SUNNY 67 38 34 W12G18 29.96F LEWISTONAUBURN N/A 67 36 31 NW12 29.95 AUGUSTA SUNNY 67 35 30 NW14G22 29.93S WATERVILLE SUNNY 65 37 35 W15G21 29.90S BANGOR SUNNY 66 35 31 W13G23 29.89F GREENVILLE N/A 57 35 43 NW18G30 29.89R MILLINOCKET SUNNY 61 35 37 W14G29 29.88S HOULTON SUNNY 61 35 37 W16G23 29.83R PRESQUE ISLE SUNNY 58 35 42 W17G25 29.85R FRENCHVILLE MOSUNNY 51 30 44 NW18G36 29.85R CARIBOU SUNNY 57 33 40 NW15G26 29.84R $$ NHZ002-005-008-009-011-012-014-202000- NEW HAMPSHIRE CITY SKY/WX TMP DP RH WIND PRES REMARKS PORTSMOUTH SUNNY 69 36 30 W13G21 29.96S ROCHESTER SUNNY 67 35 30 NW21G26 29.97S NASHUA SUNNY 69 39 33 W8 30.01S MANCHESTER SUNNY 70 32 24 NW18G26 29.99S CONCORD SUNNY 69 36 29 W15G24 30.01S LACONIA SUNNY 65 36 34 NW12G23 30.01S PLYMOUTH FAIR 64 32 30 W17G28 30.01F BERLIN SUNNY 62 35 36 W14G24 30.00R WHITEFIELD SUNNY 62 34 35 NW14G24 30.03S JAFFREY SUNNY 67 34 29 NW9G18 30.06R KEENE SUNNY 69 34 27 NW10G21 30.05R LEBANON SUNNY 68 33 27 NW10 30.04F MT WASHINGTON MOSUNNY 34 27 75 W74G81 N/A WCI 14 $$ VTZ005-007-008-202000- VERMONT CITY SKY/WX TMP DP RH WIND PRES REMARKS ST JOHNSBURY N/A 62 35 36 MISG 30.03F BURLINGTON SUNNY 67 34 29 NW15 30.09S $$ MAZ007-012-024-CTZ003-RIZ002-NYZ038-NYZ072-202000- SOUTHERN NEW ENGLAND AND NY CITY SKY/WX TMP DP RH WIND PRES REMARKS BOSTON MOSUNNY 70 37 29 W13G21 29.99F WORCESTER SUNNY 66 31 27 NW14G24 30.04S NANTUCKET SUNNY 67 46 47 NW13 30.00S PROVIDENCE MOSUNNY 71 39 31 NW12 30.02F HARTFORD MOSUNNY 72 36 26 NW10 30.06R ALBANY MOSUNNY 69 38 32 NW9G22 30.11F NEW YORK CITY SUNNY 73 34 23 NW13 30.09F $$ ANZ081-ANZ082-ANZ150-NHZ014-MEZ023>029-202000- COASTAL MARINE OBSERVATIONS STATION/POSITION TIME TEMP WIND PRES WAVE AIR SEA DIR/SP/G HT/PER (UTC) (F) (DEG/KT/KT) (MB) (FT/S) MOUNT DESERT ROC 1900 59 260/ 13/ 14 1012.4R MATINICUS ROCK 1800 59 290/ 16/ 17 1012.3F ISLE OF SHOALS 1800 63 280/ 15/ 17 1014.3F JEFFREYS LEDGE 1836 58 N/A 2/ 9 GEORGES BANK BUO 1750 60 59 1013.3 4/ 5 $$ .............KEY.............. WCI - WIND CHILL TC - TEMPERATURE IN CELSIUS VSB - VISIBILITY IN MILES HX - HEAT INDEX FAIR- INDICATES FEW OR NO CLOUDS BELOW 12,000 FT, WITH NO SIGNIFICANT WEATHER AND/OR OBSTRUCTIONS TO VISIBILITY.

USA.gov is the U.S. government's official web portal to all federal, state and local government web resources and services.